Notices

Please take our survey and provide feedback: https://eccc.sondage-survey.ca/f/LanguageSelection.aspx?s=442ca660-fcf1-47c0-95a9-59707d6fd709

Please note that for the Engineering Climate Datasets, IDF dataset is available through this link.  Intensity-Duration-Frequency (IDF) Files: Includes the latest version of short-duration rainfall Intensity-Duration-Frequency (IDF) statistics in the form of tables and graphs with accompanying documentation for various locations across Canada.  Current IDF files can be accessed through our station finder application or downloaded for each province and territory across Canada.  In addition, historical versions of IDF files are also available for download.  Updates of IDF files are provided approximately every two years depending on the availability of data.   Thank you for your patience as we enhance our systems.

Hourly Data Report for June 22, 2020

TRENTON A
ONTARIO
Current Station Operator: DND

44°07'00.000" N
77°32'00.000" W
86.30 m
6158875
71621
YTR

Download Data

Hourly Data (June 2020)
Hourly Data Report for June 22, 2020
TIME
LST
Temp Definition
°C
Dew Point Definition
°C
Rel Hum Definition
%
Precip. Amount Definition
mm

Wind Dir Definition
10's deg

Wind Spd Definition
km/h
Visibility Definition
km
Stn Press Definition
kPa
Hmdx Definition


Wind Chill Definition


Weather Definition


00:00 19.6 18.5 93     0 24.1 100.14     Mainly Clear
01:00 19.5 18.5 94     0 24.1 100.14     Mainly Clear
02:00 18.5 17.8 96   3 5 24.1 100.16     Clear
03:00 17.8 17.4 98   2 4 19.3 100.20     Clear
04:00 18.1 17.6 97   13 4 19.3 100.20     Mainly Clear
05:00 18.1 17.3 95     0 19.3 100.19     Mainly Clear
06:00 20.7 19.0 90     0 24.1 100.20 27   Mainly Clear
07:00 23.2 19.6 80   2 4 24.1 100.23 30   Mainly Clear
08:00 24.8 20.1 75   20 8 24.1 100.23 32   Mainly Clear
09:00 25.5 21.3 78   23 9 24.1 100.24 34   Mostly Cloudy
10:00 25.1 20.8 77   21 11 24.1 100.25 33   Mostly Cloudy
11:00 26.5 20.8 71   22 15 24.1 100.23 35   Cloudy
12:00 25.4 20.6 75   22 17 24.1 100.23 33   Cloudy
13:00 26.6 20.2 68   22 13 24.1 100.20 34   Cloudy
14:00 28.9 18.7 54   20 13 24.1 100.12 35   Mostly Cloudy
15:00 28.7 18.1 53   21 17 24.1 100.06 35   Mostly Cloudy
16:00 29.6 18.1 50   20 13 24.1 100.01 36   Mostly Cloudy
17:00 29.0 18.0 52   22 15 24.1 99.98 35   Mostly Cloudy
18:00 28.2 18.1 54   21 11 19.3 99.95 34   Mostly Cloudy
19:00 26.9 18.9 62   22 9 19.3 99.94 34   Mostly Cloudy
20:00 25.5 18.3 64   24 8 24.1 99.90 32   Mostly Cloudy
21:00 24.8 18.9 70   21 11 24.1 99.95 31   Mostly Cloudy
22:00 24.2 20.3 79   20 11 24.1 99.91 32   Cloudy
23:00 23.9 20.3 80   24 11 24.1 99.90 32   Cloudy

Notes on Data Quality.

Legend

  • E = Estimated
  • M = Missing
  • NA = Not Available*
  • [empty] = Indicates an unobserved value
Date modified: